Regional Weather Roundup
Issued by NWS

Home | Current Version | Previous Version | Text Only | Print | Product List | Glossary Off
Versions: 1 2 3 4 5 6 7 8 9 10 11 12 13 14 15 16 17 18 19 20 21 22 23 24 25 26 27 28 29 30 31 32 33 34 35 36 37 38 39 40 41 42 43 44 45 46 47 48 49 50

000
ASUS43 KFSD 290102
RWRSD

WEATHER ROUNDUP FOR SOUTH DAKOTA
NATIONAL WEATHER SERVICE SIOUX FALLS SD
800 PM CDT THU MAY 28 2015

NOTE: "FAIR" INDICATES FEW OR NO CLOUDS BELOW 12,000 FEET WITH NO
SIGNIFICANT WEATHER AND/OR OBSTRUCTIONS TO VISIBILITY.


SDZ001>005-009-010-012>017-290200-
NORTHWEST AND NORTH CENTRAL SOUTH DAKOTA

CITY           SKY/WX    TMP DP  RH WIND       PRES   REMARKS
BUFFALO          N/A     59  55  87 S6        29.89R
FAITH            N/A     65  56  72 W5        29.90R
MOBRIDGE       LGT RAIN  66  61  84 W12       29.83R
$$

SDZ012>016-024>037-041>051-057-063-072>074-290200-
SOUTHWEST AND SOUTH CENTRAL SOUTH DAKOTA

CITY           SKY/WX    TMP DP  RH WIND       PRES   REMARKS
RAPID CTY ARPT CLOUDY    59  54  83 NW16G22   29.96R
PIERRE         CLOUDY    64  58  80 NW16      29.82R
CUSTER         PTSUNNY   54  47  77 W8        30.04R
ELLSWORTH AFB  CLOUDY    59  55  88 NW15      29.96R
PHILIP         LGT RAIN  62  56  80 E9        29.91R
PINE RIDGE     CLOUDY    62  51  67 N25G33    29.94R THUNDER
WINNER         FAIR      66  58  75 S7        29.85F
$$

SDZ004>011-016>023-039-040-290200-
NORTHEAST SOUTH DAKOTA

CITY           SKY/WX    TMP DP  RH WIND       PRES   REMARKS
ABERDEEN       CLOUDY    75  58  55 W14       29.76R
WATERTOWN      MOCLDY    75  59  57 S15G25    29.81S
BROOKINGS      PTCLDY    73  55  53 S15       29.86R
SISSETON         N/A     80  59  48 S16       29.76R
$$

SDZ017-020-022-023-036>040-048>070-290200-
SOUTHEAST SOUTH DAKOTA

CITY           SKY/WX    TMP DP  RH WIND       PRES   REMARKS
SIOUX FALLS    MOCLDY    72  56  57 S17       29.88R
HURON            N/A    N/A N/A N/A MISG      29.80R
CHAMBERLAIN    CLOUDY    65  62  90 SW5       29.84R
MITCHELL       MOCLDY    77  62  59 S17G24    29.82R
YANKTON        MOCLDY    73  61  64 S12G18    29.85R
$$

ABBREVIATIONS USED IN REMARKS
   TC - TEMPERATURE IN CELSIUS
  WCI - WIND CHILL INDEX
   HX - HEAT INDEX
  VSB - VISIBILITY




USA.gov is the U.S. government's official web portal to all federal, state and local government web resources and services.